TimeCDT,TemperatureF,Dew PointF,Humidity,Sea Level PressureIn,VisibilityMPH,Wind Direction,Wind SpeedMPH,Gust SpeedMPH,PrecipitationIn,Events,Conditions,WindDirDegrees,DateUTC
12:15 AM,27.1,20.3,75,30.19,10.0,ENE,4.6,-,N/A,,Clear,70,2012-11-03 05:15:00
12:35 AM,26.1,19.8,77,30.19,10.0,Calm,Calm,-,N/A,,Clear,0,2012-11-03 05:35:00
12:55 AM,26.4,20.1,77,30.19,10.0,ENE,3.5,-,N/A,,Clear,70,2012-11-03 05:55:00
1:15 AM,27.0,20.8,78,30.19,10.0,Calm,Calm,-,N/A,,Clear,0,2012-11-03 06:15:00
1:35 AM,27.3,20.8,77,30.20,10.0,ENE,3.5,-,N/A,,Clear,60,2012-11-03 06:35:00
1:55 AM,27.3,21.0,77,30.20,10.0,ENE,3.5,-,N/A,,Clear,60,2012-11-03 06:55:00
2:15 AM,27.5,21.0,77,30.20,10.0,Calm,Calm,-,N/A,,Clear,0,2012-11-03 07:15:00
2:35 AM,27.5,21.0,77,30.19,10.0,ENE,5.8,-,N/A,,Clear,60,2012-11-03 07:35:00
2:55 AM,27.9,20.8,75,30.20,10.0,ENE,4.6,-,N/A,,Clear,60,2012-11-03 07:55:00
3:15 AM,27.9,20.8,75,30.20,10.0,Calm,Calm,-,N/A,,Clear,0,2012-11-03 08:15:00
3:35 AM,27.5,21.0,77,30.20,10.0,ENE,4.6,-,N/A,,Scattered Clouds,60,2012-11-03 08:35:00
3:55 AM,27.5,21.0,77,30.20,10.0,ENE,4.6,-,N/A,,Scattered Clouds,70,2012-11-03 08:55:00
4:15 AM,27.3,21.0,77,30.19,10.0,NE,4.6,-,N/A,,Mostly Cloudy,50,2012-11-03 09:15:00
4:35 AM,27.3,21.2,78,30.20,10.0,NE,5.8,-,N/A,,Mostly Cloudy,50,2012-11-03 09:35:00
4:55 AM,27.3,21.6,79,30.20,10.0,NE,3.5,-,N/A,,Scattered Clouds,40,2012-11-03 09:55:00
5:15 AM,27.3,21.2,78,30.21,10.0,ENE,3.5,-,N/A,,Scattered Clouds,60,2012-11-03 10:15:00
5:35 AM,27.3,21.2,78,30.21,10.0,Calm,Calm,-,N/A,,Scattered Clouds,0,2012-11-03 10:35:00
5:55 AM,27.1,21.2,78,30.21,10.0,NE,4.6,-,N/A,,Scattered Clouds,50,2012-11-03 10:55:00
6:15 AM,27.3,21.2,78,30.22,10.0,Calm,Calm,-,N/A,,Mostly Cloudy,0,2012-11-03 11:15:00
6:35 AM,27.1,21.4,79,30.21,10.0,NE,6.9,-,N/A,,Mostly Cloudy,50,2012-11-03 11:35:00
6:55 AM,27.1,21.4,79,30.21,10.0,NE,4.6,-,N/A,,Mostly Cloudy,50,2012-11-03 11:55:00
7:15 AM,27.1,21.4,79,30.22,10.0,ENE,3.5,-,N/A,,Mostly Cloudy,60,2012-11-03 12:15:00
7:35 AM,27.0,21.6,80,30.22,10.0,Calm,Calm,-,N/A,,Scattered Clouds,0,2012-11-03 12:35:00
7:55 AM,27.1,21.6,80,30.23,10.0,ENE,5.8,-,N/A,,Scattered Clouds,60,2012-11-03 12:55:00
8:15 AM,27.3,21.7,80,30.23,10.0,ESE,3.5,-,N/A,,Scattered Clouds,110,2012-11-03 13:15:00
8:35 AM,27.9,21.9,78,30.23,10.0,ENE,4.6,-,N/A,,Mostly Cloudy,70,2012-11-03 13:35:00
8:55 AM,28.2,21.9,77,30.23,10.0,ENE,3.5,-,N/A,,Overcast,70,2012-11-03 13:55:00
9:15 AM,28.4,21.7,76,30.25,10.0,East,5.8,-,N/A,,Overcast,90,2012-11-03 14:15:00
9:35 AM,29.5,22.3,75,30.25,10.0,East,4.6,-,N/A,,Overcast,90,2012-11-03 14:35:00
9:55 AM,29.7,22.1,73,30.26,10.0,East,3.5,-,N/A,,Mostly Cloudy,80,2012-11-03 14:55:00
10:15 AM,30.6,22.3,71,30.25,10.0,East,3.5,-,N/A,,Mostly Cloudy,90,2012-11-03 15:15:00
10:35 AM,31.8,22.8,69,30.25,10.0,East,4.6,-,N/A,,Mostly Cloudy,90,2012-11-03 15:35:00
10:55 AM,32.0,23.0,69,30.26,10.0,East,3.5,-,N/A,,Mostly Cloudy,100,2012-11-03 15:55:00
11:15 AM,33.4,23.7,68,30.26,10.0,Calm,Calm,-,N/A,,Overcast,0,2012-11-03 16:15:00
11:35 AM,33.8,23.7,67,30.26,10.0,Calm,Calm,-,N/A,,Mostly Cloudy,0,2012-11-03 16:35:00
11:55 AM,33.8,23.7,67,30.26,10.0,Calm,Calm,-,N/A,,Mostly Cloudy,0,2012-11-03 16:55:00
12:15 PM,34.3,24.1,66,30.25,10.0,Calm,Calm,-,N/A,,Scattered Clouds,0,2012-11-03 17:15:00
12:35 PM,35.2,24.4,65,30.25,10.0,Calm,Calm,-,N/A,,Scattered Clouds,0,2012-11-03 17:35:00
12:55 PM,35.6,24.1,63,30.23,10.0,Calm,Calm,-,N/A,,Scattered Clouds,0,2012-11-03 17:55:00
1:15 PM,36.0,24.4,63,30.23,10.0,Calm,Calm,-,N/A,,Scattered Clouds,0,2012-11-03 18:15:00
1:35 PM,37.4,24.8,60,30.22,10.0,Calm,Calm,-,N/A,,Mostly Cloudy,0,2012-11-03 18:35:00
1:55 PM,37.2,24.3,60,30.22,10.0,Calm,Calm,-,N/A,,Scattered Clouds,0,2012-11-03 18:55:00
2:15 PM,38.8,25.0,58,30.21,10.0,Calm,Calm,-,N/A,,Clear,0,2012-11-03 19:15:00
2:35 PM,39.4,24.6,56,30.21,10.0,North,5.8,-,N/A,,Scattered Clouds,350,2012-11-03 19:35:00
2:55 PM,38.5,24.4,57,30.21,10.0,West,3.5,-,N/A,,Scattered Clouds,270,2012-11-03 19:55:00
3:15 PM,38.3,24.1,57,30.20,10.0,Calm,Calm,-,N/A,,Scattered Clouds,0,2012-11-03 20:15:00
3:35 PM,38.3,24.6,58,30.20,10.0,Calm,Calm,-,N/A,,Overcast,0,2012-11-03 20:35:00
3:55 PM,38.1,24.1,57,30.21,10.0,Calm,Calm,-,N/A,,Scattered Clouds,0,2012-11-03 20:55:00
4:15 PM,37.8,24.1,58,30.21,10.0,Calm,Calm,-,N/A,,Scattered Clouds,0,2012-11-03 21:15:00
4:35 PM,37.9,23.9,57,30.20,10.0,Calm,Calm,-,N/A,,Scattered Clouds,0,2012-11-03 21:35:00
4:55 PM,38.3,24.3,57,30.20,10.0,Calm,Calm,-,N/A,,Clear,0,2012-11-03 21:55:00
5:15 PM,37.4,23.9,58,30.20,10.0,Calm,Calm,-,N/A,,Clear,0,2012-11-03 22:15:00
5:35 PM,36.9,23.9,59,30.20,10.0,Calm,Calm,-,N/A,,Scattered Clouds,0,2012-11-03 22:35:00
5:55 PM,31.8,23.0,70,30.20,10.0,Calm,Calm,-,N/A,,Scattered Clouds,0,2012-11-03 22:55:00
6:15 PM,32.2,23.5,70,30.20,10.0,Calm,Calm,-,N/A,,Clear,0,2012-11-03 23:15:00
6:35 PM,31.6,23.7,73,30.21,10.0,Calm,Calm,-,N/A,,Mostly Cloudy,0,2012-11-03 23:35:00
6:55 PM,29.3,22.5,76,30.21,10.0,Calm,Calm,-,N/A,,Overcast,0,2012-11-03 23:55:00
7:15 PM,30.4,23.2,75,30.21,10.0,Calm,Calm,-,N/A,,Overcast,0,2012-11-04 00:15:00
7:35 PM,29.1,23.0,78,30.22,10.0,Calm,Calm,-,N/A,,Overcast,0,2012-11-04 00:35:00
7:55 PM,27.7,22.8,82,30.22,10.0,Calm,Calm,-,N/A,,Overcast,0,2012-11-04 00:55:00
8:15 PM,28.8,22.6,78,30.22,10.0,Calm,Calm,-,N/A,,Overcast,0,2012-11-04 01:15:00
8:35 PM,26.6,22.3,84,30.22,10.0,Calm,Calm,-,N/A,,Mostly Cloudy,0,2012-11-04 01:35:00
8:55 PM,26.2,21.9,84,30.22,10.0,Calm,Calm,-,N/A,,Scattered Clouds,0,2012-11-04 01:55:00
9:15 PM,23.9,21.2,89,30.23,10.0,Calm,Calm,-,N/A,,Clear,0,2012-11-04 02:15:00
9:35 PM,22.8,20.3,90,30.24,10.0,Calm,Calm,-,N/A,,Clear,0,2012-11-04 02:35:00
9:55 PM,25.2,21.2,85,30.23,10.0,Calm,Calm,-,N/A,,Clear,0,2012-11-04 02:55:00
10:15 PM,23.7,20.7,88,30.24,10.0,Calm,Calm,-,N/A,,Clear,0,2012-11-04 03:15:00
10:35 PM,24.1,20.8,87,30.23,10.0,Calm,Calm,-,N/A,,Clear,0,2012-11-04 03:35:00
10:55 PM,23.2,21.0,91,30.23,10.0,Calm,Calm,-,N/A,,Clear,0,2012-11-04 03:55:00
11:15 PM,22.6,20.3,91,30.23,10.0,Calm,Calm,-,N/A,,Clear,0,2012-11-04 04:15:00
11:35 PM,21.9,19.8,91,30.23,10.0,Calm,Calm,-,N/A,,Clear,0,2012-11-04 04:35:00
11:55 PM,20.7,18.5,91,30.23,10.0,Calm,Calm,-,N/A,,Clear,0,2012-11-04 04:55:00